Hourly Data Report for September 30, 2017

All times are specified in Local Standard Time (LST). Add 1 hour to adjust for Daylight Saving Time where and when it is observed.

MONCTON INTL A
NEW BRUNSWICK

46°06'44.000" N
64°40'43.000" W
70.70 m
8103201
71705
YQM

Download Data

Hourly Data (September 2017)
Hourly Data Report for September 30, 2017
Temp Definition
°C
Dew Point Temp Definition
°C
Rel Hum Definition
%
Wind Dir Definition
10's deg

Wind Spd Definition
km/h
Visibility Definition
km
Stn Press Definition
kPa
Hmdx Definition


Wind Chill Definition


Weather Definition


TIME
00:00 Legend Double Dagger 6.2 5.3 94 33 7 16.1 100.96     Rain Showers
01:00 Legend Double Dagger 5.8 4.7 93 32 12 24.1 101.02     Rain Showers
02:00 Legend Double Dagger 4.9 3.5 90 32 11 19.3 101.04     Rain Showers
03:00 Legend Double Dagger 3.6 2.4 92 31 13 24.1 101.08     LegendNANA
04:00 Legend Double Dagger 3.8 2.1 89 32 11 24.1 101.12     LegendNANA
05:00 Legend Double Dagger 3.8 2.0 88 33 16 24.1 101.19     Mostly Cloudy
06:00 Legend Double Dagger 3.1 1.9 92 34 5 24.1 101.29     LegendNANA
07:00 Legend Double Dagger 3.1 2.0 92 28 7 24.1 101.36     LegendNANA
08:00 Legend Double Dagger 5.3 3.8 90 28 8 24.1 101.42     Mostly Cloudy
09:00 Legend Double Dagger 6.5 4.1 85 30 8 24.1 101.49     LegendNANA
10:00 Legend Double Dagger 9.1 5.3 77 36 9 24.1 101.52     LegendNANA
11:00 Legend Double Dagger 10.0 5.6 74 33 12 24.1 101.53     Rain Showers
12:00 Legend Double Dagger 9.7 5.0 72 2 20 24.1 101.53     LegendNANA
13:00 Legend Double Dagger 9.9 4.6 69 35 12 24.1 101.53     LegendNANA
14:00 Legend Double Dagger 9.6 5.3 74 2 6 24.1 101.53     Mostly Cloudy
15:00 Legend Double Dagger 10.3 4.5 67 2 9 24.1 101.51     LegendNANA
16:00 Legend Double Dagger 10.7 3.8 62 6 9 24.1 101.49     LegendNANA
17:00 Legend Double Dagger 9.1 3.9 70 5 11 24.1 101.49     Mostly Cloudy
18:00 Legend Double Dagger 6.4 4.2 85 7 6 24.1 101.49     LegendNANA
19:00 Legend Double Dagger 6.8 3.7 81 11 4 24.1 101.54     LegendNANA
20:00 Legend Double Dagger 5.9 3.5 84 12 7 24.1 101.59     Mainly Clear
21:00 Legend Double Dagger 5.6 3.0 83 17 10 24.1 101.57     LegendNANA
22:00 Legend Double Dagger 4.9 2.8 86 18 9 24.1 101.54     LegendNANA
23:00 Legend Double Dagger 2.4 2.1 98 23 11 4.8 101.54     Fog

Notes on Data Quality.

Legend

  • E = Estimated
  • M = Missing
  • NA = Not Available
  • ‡ = Partner data that is not subject to review by the National Climate Archives
Date modified: